CW6451 Weather Reports


Display with metric or nautical units.
time (UTC)temp
F
wind
direction
speed
MPH
gust
MPH
rain 1hr
in
rain 24hr
in
rain mn
in
humidity
%
barometer
mb
20260507184545 64 276 2.0 6.0 0.00 0.58 0.37 49 1006.6
20260507183041 64 355 2.0 8.0 0.00 0.58 0.37 59 1006.9
20260507181539 63 273 1.0 8.0 0.00 0.58 0.37 66 1007.1
20260507180040 62 181 3.0 9.0 0.00 0.58 0.37 73 1007.3
20260507174543 62 180 4.0 9.0 0.00 0.58 0.37 75 1007.4
20260507173044 62 163 3.0 12.0 0.00 0.58 0.37 70 1007.2
20260507171547 62 180 4.0 9.0 0.00 0.58 0.37 70 1007.6
20260507170043 63 209 1.0 9.0 0.00 0.58 0.37 71 1007.7
20260507164538 62 242 2.0 9.0 0.00 0.58 0.37 65 1008.0
20260507163037 61 360 2.0 9.0 0.00 0.58 0.37 69 1008.1
20260507161540 60 345 2.0 10.0 0.00 0.58 0.37 67 1008.1
20260507160045 59 22 2.0 8.0 0.00 0.58 0.37 73 1008.2
20260507154543 59 307 3.0 8.0 0.00 0.58 0.37 74 1008.4
20260507153043 58 277 0.0 4.0 0.00 0.58 0.37 80 1008.6
20260507151539 57 266 2.0 8.0 0.00 0.58 0.37 81 1008.7
20260507150038 56 22 3.0 8.0 0.00 0.58 0.37 86 1008.7
20260507144545 54 340 5.0 11.0 0.00 0.58 0.37 88 1008.8
20260507143045 53 42 6.0 13.0 0.00 0.58 0.37 92 1008.6
20260507141544 51 315 6.0 12.0 0.00 0.58 0.37 96 1008.9
20260507140040 51 309 6.0 12.0 0.00 0.58 0.37 98 1008.8
20260507134539 51 283 4.0 11.0 0.00 0.58 0.37 99 1009.1
20260507133038 51 355 4.0 11.0 0.01 0.58 0.37 99 1009.0
20260507131605 51 303 2.0 5.0 0.01 0.58 0.37 100 1008.9
20260507130043 50 341 2.0 7.0 0.01 0.58 0.37 99 1009.3
20260507124544 50 0 1.0 8.0 0.02 0.58 0.37 99 1008.6
20260507123043 50 319 2.0 9.0 0.03 0.57 0.36 99 1008.7
20260507121539 50 0 1.0 9.0 0.04 0.57 0.36 99 1009.2
20260507120039 49 5 2.0 4.0 0.04 0.57 0.36 99 1009.3
20260507114547 49 355 1.0 6.0 0.04 0.56 0.35 99 1008.8
20260507113045 48 355 3.0 10.0 0.03 0.54 0.33 99 1008.8
20260507111544 49 355 5.0 14.0 0.02 0.52 0.32 99 1008.6
20260507110041 49 335 5.0 14.0 0.02 0.52 0.32 99 1008.9
20260507104539 49 21 4.0 12.0 0.02 0.52 0.31 99 1008.7
20260507103038 49 344 4.0 12.0 0.02 0.51 0.30 99 1007.6
20260507101538 50 14 5.0 11.0 0.03 0.51 0.30 99 1007.7
20260507100048 49 13 6.0 14.0 0.05 0.51 0.30 99 1007.8
20260507094542 49 350 4.0 14.0 0.06 0.50 0.29 99 1007.7
20260507093046 49 14 5.0 12.0 0.07 0.49 0.28 99 1007.6
20260507091538 50 42 7.0 13.0 0.06 0.48 0.27 99 1007.6
20260507090037 51 42 4.0 12.0 0.10 0.46 0.25 99 1007.3
20260507084537 52 360 3.0 15.0 0.15 0.44 0.23 100 1007.4
20260507083046 52 344 3.0 8.0 0.21 0.42 0.21 100 1007.5
20260507081543 53 21 3.0 12.0 0.20 0.41 0.20 100 1007.1
20260507080041 53 338 6.0 11.0 0.15 0.36 0.15 100 1007.4
20260507074539 52 298 3.0 7.0 0.08 0.29 0.08 100 1007.6
20260507073039 53 290 1.0 4.0 0.00 0.21 0.00 100 1006.7
20260507071600 52 0 0.0 1.0 0.00 0.21 0.00 100 1006.3
20260507070039 52 0 0.0 2.0 0.00 0.21 0.00 100 1006.4
20260507064537 52 172 1.0 4.0 0.00 0.21 0.00 100 1006.6
20260507063045 52 0 0.0 0.0 0.00 0.21 0.00 100 1006.6
20260507061540 52 172 0.0 2.0 0.00 0.21 0.00 100 1006.6
20260507060039 52 225 0.0 2.0 0.00 0.21 0.00 100 1006.9
20260507054538 51 223 1.0 4.0 0.00 0.21 0.00 100 1007.2
20260507053111 51 229 1.0 5.0 0.00 0.21 0.00 99 1007.3
20260507051545 51 207 2.0 9.0 0.00 0.21 0.00 99 1007.4
20260507050044 51 171 2.0 8.0 0.00 0.21 0.00 99 1007.7
20260507044547 51 190 3.0 9.0 0.00 0.21 0.00 99 1007.6
20260507043038 52 186 3.0 6.0 0.00 0.21 0.00 99 1007.7
20260507041537 52 234 3.0 7.0 0.00 0.21 0.00 99 1007.6
20260507040036 52 194 3.0 10.0 0.00 0.21 0.00 99 1007.9
20260507034543 52 192 3.0 11.0 0.00 0.21 0.21 99 1007.9
20260507033044 52 179 3.0 9.0 0.00 0.21 0.21 99 1008.0
20260507031538 52 236 3.0 8.0 0.00 0.21 0.21 99 1008.2
20260507030039 52 186 3.0 11.0 0.00 0.21 0.21 99 1008.1
20260507024540 52 223 5.0 13.0 0.00 0.21 0.21 99 1008.2
20260507023044 52 210 5.0 13.0 0.00 0.21 0.21 99 1008.1
20260507021544 52 230 4.0 13.0 0.00 0.21 0.21 99 1008.3
20260507020041 52 182 5.0 15.0 0.00 0.21 0.21 99 1008.2
20260507014547 52 177 4.0 11.0 0.00 0.21 0.21 99 1008.5
20260507013037 53 223 5.0 15.0 0.00 0.21 0.21 99 1008.6
20260507011540 53 192 4.0 14.0 0.00 0.21 0.21 99 1008.7
20260507010038 53 229 7.0 13.0 0.00 0.21 0.21 99 1008.8
20260507004545 53 207 5.0 18.0 0.00 0.21 0.21 99 1008.9
20260507003039 53 235 6.0 14.0 0.00 0.21 0.21 99 1008.8
20260507001547 53 192 5.0 11.0 0.01 0.21 0.21 99 1008.8
20260507000038 52 234 3.0 12.0 0.01 0.21 0.21 99 1008.8
20260506234537 52 256 5.0 17.0 0.01 0.21 0.21 98 1008.7
20260506233037 53 213 3.0 12.0 0.03 0.21 0.21 98 1008.6
20260506231542 53 193 5.0 15.0 0.06 0.20 0.20 98 1008.5
20260506230041 53 213 7.0 15.0 0.09 0.20 0.20 98 1008.4
20260506224539 54 200 6.0 15.0 0.12 0.20 0.20 98 1008.4
20260506223108 54 195 6.0 19.0 0.11 0.18 0.18 98 1008.5
20260506221538 53 191 7.0 19.0 0.09 0.14 0.14 98 1008.7
20260506220040 53 216 7.0 14.0 0.06 0.11 0.11 97 1009.0
20260506214550 53 182 5.0 14.0 0.04 0.08 0.08 97 1009.2
20260506213040 53 183 5.0 15.0 0.04 0.07 0.07 96 1009.1
20260506211547 54 221 6.0 14.0 0.03 0.05 0.05 96 1009.2
20260506210037 54 178 6.0 12.0 0.03 0.05 0.05 96 1009.3
20260506204543 54 200 7.0 17.0 0.03 0.04 0.04 95 1009.4
20260506203045 55 204 7.0 13.0 0.03 0.03 0.03 95 1009.5
20260506201545 55 194 6.0 15.0 0.02 0.02 0.02 94 1009.5
20260506200047 55 190 5.0 21.0 0.02 0.02 0.02 95 1009.7
20260506194542 55 128 6.0 14.0 0.01 0.01 0.01 93 1009.8
20260506193039 55 183 7.0 15.0 0.00 0.00 0.00 91 1010.1
20260506191538 56 172 8.0 19.0 0.00 0.00 0.00 88 1010.3
20260506190044 56 196 6.0 14.0 0.00 0.00 0.00 88 1010.4